User: anonymous   Login
Location: Unspecified
(0.0000°N, 0.0000°E)
Time: 16:39:08
(UTC+00:00)
Language:

Relay 2 - Orbit

View from above orbital plane
View from above orbital plane
View from above satellite
View from above satellite

Ground track
Ground track

The orbit data is extracted from the following two-line orbital elements,

1   737U 64003A   18169.56277840 -.00000017 +00000-0 +00000-0 0  9993
2   737 046.4640 032.2345 2588654 347.7391 007.0298 07.39536141470011
Epoch (UTC): 18 June 2018 13:30:24
Eccentricity: 0.2588654
inclination: 46.4640°
perigee height: 1869 km
apogee height: 7631 km
right ascension of ascending node: 32.2345°
argument of perigee: 347.7391°
revolutions per day: 7.39536141
mean anomaly at epoch: 7.0298°
orbit number at epoch: 47001

The dashed part of the orbit path shows where the satellite is in the earth's shadow,  

DLR